OBJECT M, 63221

Orbit data source: Space-Track

You're viewing an uncataloged RSO

Recently launched and/or uncataloged RSOs may have evolving metadata. Metadata may include the following, but is not limited to: Owner, Manufacturer, Bus, Motor, and Mission.

OBJECT M, 63221 is a satellite in SSO that was launched on Sat, 15 Mar 2025 UTC via an FALCON 9 launch vehicle from the Air Force Western Test Range (AFWTR). Unknown objects in Earth's orbit typically refer to objects detected orbiting the Earth but have not yet been identified or cataloged. These objects could be anything from previously untracked satellites, spent rocket stages, debris from satellite collisions, or even natural meteoroids temporarily captured by Earth's gravity.

Loading next visibility...
Identifier
63221, 2025-052M
Orbit
SSO
Country
Flag of TBDTBD
Related business
None
Manufacturer
Unknown
Mission
Operational Defense Calibration
Bus & Motor
Unknown
Mass
Unknown
Launch date (UTC)
2025-03-15 (2 years ago)
Launch vehicle
FALCON 9
Launch site
Air Force Western Test Range (AFWTR)
Object type
Unknown
Shape & HBR
Box, 0.2 m
Radar Cross Section
0.080 m², Medium (>0.1 m² and < 1m²)

Expand to show TLE details & history
Last TLE update: 12 hours ago

TLE from 12 hours ago
0 OBJECT M
1 63221U 25052M   26265.49375209  .00002430  00000-0  10786-3 0  9992
2 63221  97.3732 155.8736 0004285 137.1536 223.0035 15.22502743 84645
Epoch: 2026-09-22T11:51Z
TLE epoch observation values (Epoch: 2026-09-22T11:51:00.180Z)
Latitude
-0.00004°
Longitude
-23.23557°
Altitude
503.545 km
Speed
7.611 km/s
True Right ascension
10h 23m 29s
True Declination
0° 00' 00"
Sunlit
Object was in daylight at epoch
Visualization orbit readout
Latitude
Unknown
Longitude
Unknown
Altitude
Unknown
Speed
Unknown
Apparent Right ascension
Unknown
Apparent Declination
Unknown
Sunlit
N/A
Visualization observer readout
Local Sidereal Time
17:12:35
Azimuth
Unknown
Elevation
Unknown
Doppler factor
Unknown
Orbital elements
Apogee altitude
498.201 km
Perigee altitude
492.31 km
Semi-major axis
6,873.393 km
Eccentricity
0.00043
Inclination
97.3732°
RAAN
155.8736°
Arg. of periapsis
137.1536°
True anomaly
222.97002°
Mean anomaly
223.0035°
Eccentric anomaly
222.98676°
Mean motion
3.80878 °/min
Orbital period
94.52 mins
BSTAR
0.00010786
Loading maneuver chart data...
Computing Atmospheric mass density...
Loading historical data...
Loading historical data...
Loading historical data...
Loading historical data...
Loading historical data...
Loading historical data...
Loading historical data...

Documentation

Showing up to 5 results
|